Location: Unspecified
(44.4377°N, 88.0525°W)
Time: 16:02:13
(UTC-05:00)

Cosmos 1674 - Visible Passes

Search period start: 01 September 2014 00:00
Search period end: 11 September 2014 00:00
Orbit: 514 x 544 km, 82.5° (Epoch: 01 September)

Date Brightness Start Highest point End Pass type
(mag) Time Alt. Az. Time Alt. Az. Time Alt. Az.
02 Sep 6.1 00:06:05 10° NNW 00:06:06 10° NNW 00:06:06 10° NNW visible
02 Sep 6.1 23:55:11 10° NNW 23:55:15 10° NNW 23:55:15 10° NNW visible
03 Sep 6.1 23:44:17 10° N 23:44:23 11° N 23:44:23 11° N visible
04 Sep 6.0 23:33:23 10° N 23:33:32 11° N 23:33:32 11° N visible
05 Sep 6.0 23:22:28 10° N 23:22:40 11° N 23:22:40 11° N visible
06 Sep 5.9 23:11:34 10° N 23:11:49 12° N 23:11:49 12° N visible
07 Sep 5.8 23:00:39 10° N 23:00:58 12° N 23:00:58 12° N visible
08 Sep 5.7 22:49:44 10° N 22:50:07 13° N 22:50:07 13° N visible
09 Sep 5.7 22:38:49 10° N 22:39:17 13° N 22:39:17 13° N visible
10 Sep 5.6 22:27:53 10° N 22:28:27 14° N 22:28:27 14° N visible
